Miscellaneous Local Product
Issued by NWS Hastings, NE

Home | Current Version | Previous Version | Text Only | Print | Product List | Glossary On
Versions: 1 2 3 4 5 6 7 8 9 10 11 12 13 14 15 16 17 18 19 20 21 22 23 24 25 26 27 28 29 30 31 32 33 34 35 36 37 38 39 40 41 42 43 44 45 46 47 48 49 50
914
AXUS43 KGID 261102
MISGRI

GID CWA HOURLY WEATHER ROUNDUP
NATIONAL WEATHER SERVICE HASTINGS NE
600 AM CDT WED APR 26 2017

NOTE: "FAIR" INDICATES FEW OR NO CLOUDS BELOW 12,000 FEET WITH NO
SIGNIFICANT WEATHER AND/OR OBSTRUCTIONS TO VISIBILITY.

...SOUTH CENTRAL NEBRASKA...

CITY           SKY/WX    TMP DP  RH WIND       PRES   REMARKS
GRAND ISLAND   CLOUDY    34  30  85 NW20G28   29.74R WCI  23
HASTINGS       CLOUDY    35  30  82 NW18      29.74R WCI  24
KEARNEY        CLOUDY    34  27  75 N17G25    29.76R WCI  23
ORD            CLOUDY    32  27  81 NW21G26   29.74R WCI  20
YORK           CLOUDY    36  32  87 NW21G26   29.69S WCI  24
AURORA         CLOUDY    34  31  88 NW25G31   29.72R WCI  22
LEXINGTON      CLOUDY    33  28  81 N14       29.78R WCI  23
HOLDREGE       CLOUDY    33  28  79 NW20G28   29.76S WCI  22
HEBRON         CLOUDY    37  32  81 NW18G26   29.71R WCI  27

...NEBRASKA PANHANDLE...

CITY           SKY/WX    TMP DP  RH WIND       PRES   REMARKS
CHADRON        CLOUDY    30  26  85 CALM      29.86S
ALLIANCE       CLOUDY    28  25  88 N13       29.82R WCI  17
SCOTTSBLUFF    PTCLDY    31  25  78 NW9       29.83F WCI  23
SIDNEY         CLOUDY    31  27  85 N13       29.81R WCI  21

...WESTERN AND NORTH CENTRAL NEBRASKA...

CITY           SKY/WX    TMP DP  RH WIND       PRES   REMARKS
VALENTINE      CLOUDY    32  25  75 NW15      29.79R WCI  22
AINSWORTH      CLOUDY    31  28  92 NW15      29.78R WCI  20
ONEILL         CLOUDY    32  29  90 NW18      29.75R WCI  20
BROKEN BOW     CLOUDY    32  25  75 N23G29    29.75S WCI  19
IMPERIAL       CLOUDY    29  24  82 N13       29.82R WCI  19
NORTH PLATTE   CLOUDY    32  25  75 N17G25    29.79S WCI  21
MCCOOK         CLOUDY    33  25  72 N14       29.81R WCI  23

...EASTERN NEBRASKA...

CITY           SKY/WX    TMP DP  RH WIND       PRES   REMARKS
NORFOLK        CLOUDY    33  28  81 NW20G31   29.68R WCI  21
SO SIOUX CITY  CLOUDY    35  33  92 NW23G33   29.63R WCI  23
TEKAMAH        CLOUDY    36  33  89 NW26      29.65R WCI  24
COLUMBUS       CLOUDY    36  28  75 NW20G26   29.69F WCI  25
ALBION         CLOUDY    34  30  86 NW22G28   29.70S WCI  22
OMAHA EPPLEY   CLOUDY    37  33  85 NW17G25   29.62S WCI  27
OFFUTT AFB     CLOUDY    37  34  88 NW21G28   29.60F WCI  27
MILLARD        CLOUDY    38  36  90 NW15G22   29.63F WCI  30
LINCOLN        CLOUDY    38  31  76 NW21G32   29.66F WCI  28
NEBRASKA CITY  CLOUDY    38  33  83 NW18G32   29.60F WCI  28
BEATRICE       CLOUDY    38  33  84 NW24G30   29.65R WCI  26
FALLS CITY     CLOUDY    40  35  83 NW14G28   29.60R WCI  32

...NORTHERN KANSAS...

CITY           SKY/WX    TMP DP  RH WIND       PRES   REMARKS
GOODLAND       FLURRIES  32  27  81 N15G28    29.80R WCI  22
HILL CITY      CLOUDY    38  28  67 N16       29.77F WCI  29
NORTON         CLOUDY    36  21  55 NW18G24   29.76F WCI  25
PHILLIPSBURG   CLOUDY    37  28  70 NW16G25   29.76F WCI  28
SMITH CENTER   CLOUDY    36  28  75 NW23G31   29.73F WCI  24
HAYS           CLOUDY    38  30  73 N17G28    29.73S WCI  28
RUSSELL        CLOUDY    39  31  72 N23G32    29.71R WCI  28
CONCORDIA      CLOUDY    39  34  82 NW20G26   29.68S WCI  29
SALINA         CLOUDY    43  36  76 N20G26    29.70R
TOPEKA         CLOUDY    43  40  89 NW17      29.61R



USA.gov is the U.S. government's official web portal to all federal, state and local government web resources and services.